Theta_e
314 313 312 312 312 312 312 312 312 312 312 312 312 311 311 311 309 307 306 306 305 303 302 301 300 298 297 296 296 296 296 296 296 296 297 297 297 298 298 301 304 304 305 306 305 305 305 306 306 305 303 302 301 301 301 301 301 301 301 301 301 302 303 303 303 303 303 303 303 302 302 303 302 302 303 303 304 305 306 309 312 314 316 319 321
313 312 312 312 312 312 312 312 312 311 312 312 311 309 307 307 306 304 304 303 302 301 301 302 299 296 296 296 296 296 296 296 296 296 297 299 299 299 299 302 304 304 305 305 305 305 304 304 304 302 300 300 300 300 300 299 299 299 300 300 300 300 301 301 302 302 302 302 302 302 302 303 303 302 303 304 304 304 306 308 310 311 313 316 319
312 312 312 311 311 311 311 311 311 311 310 310 308 306 305 305 304 302 301 300 300 300 301 301 299 296 295 295 295 296 296 296 296 296 296 299 301 301 300 302 303 304 305 305 304 303 303 303 302 300 299 299 299 299 298 298 299 299 299 299 299 299 299 300 300 301 301 301 301 301 302 302 303 303 304 305 305 306 307 309 311 312 313 315 318
312 311 311 311 311 311 310 310 310 310 309 308 306 305 304 304 303 301 300 300 301 301 300 299 297 295 295 295 295 295 296 296 296 296 296 300 303 303 302 304 304 304 305 304 302 303 302 302 302 300 299 299 298 298 298 298 298 299 299 299 299 300 300 300 300 300 300 300 300 301 301 302 302 303 303 304 305 307 307 308 308 310 312 314 316
311 311 311 311 310 310 310 310 309 308 306 305 304 303 302 302 301 301 301 302 303 304 302 298 295 295 295 295 295 295 296 296 296 296 297 300 304 303 303 304 305 303 303 303 302 302 302 302 302 300 299 298 297 297 297 298 298 298 299 299 300 300 300 300 300 299 299 299 300 300 300 301 302 302 303 304 305 306 307 307 307 309 312 314 316
311 310 310 310 310 310 309 308 306 304 303 303 302 301 301 302 301 300 300 299 301 302 301 298 295 295 295 295 295 295 295 296 295 296 297 298 302 304 303 304 304 303 302 303 302 302 301 301 301 299 299 298 297 297 297 297 298 299 299 300 300 300 300 299 299 298 298 299 299 300 300 300 301 301 302 303 304 304 306 307 308 309 312 314 317
311 310 310 310 309 309 307 306 303 302 302 301 301 302 303 302 302 302 302 301 300 299 298 296 295 295 295 295 295 295 295 296 295 296 297 297 300 304 303 303 303 302 302 302 302 301 301 301 300 299 298 298 297 297 297 298 298 299 299 299 300 299 298 298 297 297 298 298 299 300 300 300 300 301 301 302 302 303 304 305 306 307 308 310 313
311 310 310 310 308 306 304 303 302 301 300 299 299 300 300 300 300 301 303 303 303 302 301 299 296 295 295 295 295 295 295 295 295 295 296 297 299 302 303 303 302 302 301 302 301 301 300 299 299 299 298 298 297 296 297 297 298 298 299 299 299 299 297 297 297 298 298 299 299 299 300 300 300 300 300 301 301 302 302 303 304 304 305 306 308
310 310 310 308 306 303 302 301 300 299 298 298 298 298 298 298 298 299 302 304 304 304 303 301 297 294 295 295 295 295 294 295 295 295 295 297 298 301 303 303 302 301 301 301 301 300 300 299 298 299 298 297 296 296 297 297 298 299 299 299 299 298 297 297 297 298 298 299 299 299 299 300 300 300 300 300 301 301 301 302 303 303 304 305 306
310 309 308 305 302 300 300 300 299 298 298 298 297 297 298 298 298 299 300 302 303 304 303 300 296 294 295 295 294 295 295 294 295 295 295 296 297 299 301 302 302 301 301 301 300 300 299 298 298 298 297 296 296 296 297 298 298 299 299 298 298 297 297 297 297 298 298 298 299 299 299 299 299 299 299 299 299 300 300 301 302 302 303 304 304
309 308 306 303 301 301 301 301 299 298 298 298 297 297 297 297 297 297 297 299 301 302 301 298 295 294 294 295 294 294 295 294 295 295 295 296 297 298 300 302 302 301 300 300 300 300 299 298 298 298 297 296 296 297 297 298 298 299 298 298 298 297 297 297 298 298 298 298 298 298 298 298 298 298 298 298 298 298 299 299 300 300 301 302 303
307 306 305 304 303 303 303 303 301 300 298 297 296 296 296 295 295 295 296 297 298 299 299 299 299 296 294 294 294 294 294 294 294 295 295 295 296 298 300 302 302 301 300 300 300 299 298 298 298 297 296 296 296 297 297 298 298 298 298 298 297 297 297 298 298 298 298 298 297 297 297 297 297 297 297 297 297 297 297 298 298 299 300 300 302
306 305 305 304 304 304 303 302 300 298 296 295 295 295 295 294 295 294 295 295 295 296 298 301 301 298 294 294 294 294 294 294 294 294 295 295 296 298 300 301 301 300 300 300 300 299 299 298 297 297 296 296 297 297 297 297 298 298 298 297 297 297 297 298 298 298 298 297 297 297 297 297 296 296 297 297 296 296 296 297 297 298 299 300 300
305 305 305 304 304 302 300 298 296 295 295 295 295 294 294 294 295 295 295 294 294 295 296 299 301 300 296 293 294 294 294 294 294 294 295 296 297 299 300 301 301 300 300 299 299 299 298 298 297 296 296 296 296 296 296 297 297 297 297 297 297 297 297 297 298 298 298 297 297 297 297 297 297 297 296 296 296 296 296 296 296 297 298 299 300
305 304 303 302 300 298 296 295 295 296 297 297 296 296 296 296 297 297 296 295 294 294 294 297 301 301 296 293 294 294 294 294 294 294 294 295 296 299 301 301 301 300 299 299 299 299 298 298 297 296 295 296 296 296 296 296 296 296 297 297 297 297 296 296 297 298 298 297 297 297 297 297 297 297 296 296 296 296 296 295 296 297 298 299 300
304 302 301 299 299 298 298 297 297 298 298 298 297 296 295 296 296 296 295 295 294 294 294 295 298 298 296 293 294 294 294 294 294 294 294 294 294 297 299 300 301 300 299 299 299 299 298 297 297 296 295 296 296 296 296 296 296 296 296 296 296 296 296 296 297 298 298 297 297 297 297 297 297 296 296 296 295 296 296 296 296 297 298 299 300
302 301 301 300 300 301 301 300 299 299 298 298 297 297 297 297 297 296 296 295 294 293 293 293 294 295 295 294 294 294 293 293 293 293 293 294 293 294 296 298 300 300 299 299 299 299 298 298 298 296 295 295 296 296 296 296 296 296 296 296 296 296 296 296 297 297 297 297 297 297 297 297 297 296 296 296 296 296 296 296 297 297 298 299 300
302 302 302 302 301 302 301 301 301 300 299 297 297 298 298 297 297 298 299 299 298 297 295 294 293 293 293 294 294 293 293 293 293 293 293 293 293 293 294 295 297 298 298 298 299 299 298 298 297 296 295 295 296 296 296 296 296 296 296 296 296 296 296 296 296 297 297 297 297 297 297 297 296 296 296 296 296 296 295 296 297 297 298 299 300
303 303 302 301 301 302 301 301 301 300 298 297 297 298 298 299 299 299 300 300 301 299 297 296 296 295 294 293 293 293 293 293 293 293 293 293 293 293 293 293 295 297 298 298 299 298 298 298 297 296 295 295 296 296 296 296 296 296 296 296 296 296 296 296 296 296 296 297 297 297 297 297 296 296 295 296 297 296 296 297 297 297 297 299 300
303 302 302 302 301 301 301 301 301 299 298 298 299 300 301 301 301 302 302 301 301 300 299 298 298 298 297 295 294 293 293 292 292 293 293 293 293 293 293 292 294 295 297 298 298 298 298 298 297 296 295 295 296 296 296 296 296 295 296 296 296 296 296 296 296 296 296 296 296 297 297 297 296 296 295 296 297 297 297 297 298 297 297 298 300
302 302 302 302 302 301 301 300 300 298 298 299 300 301 301 301 301 301 301 301 302 302 301 301 300 300 300 298 295 294 293 292 292 292 292 293 293 293 293 292 293 294 295 296 297 297 297 297 296 295 296 296 295 296 296 296 296 296 296 296 296 296 296 296 296 296 296 296 296 297 297 297 297 296 295 295 296 297 297 298 298 299 299 299 301
302 302 302 302 302 301 300 299 298 298 299 300 301 302 302 301 301 300 300 301 302 302 302 302 302 301 301 299 297 294 293 292 292 292 292 292 292 292 292 292 293 293 293 294 295 296 296 296 295 295 296 296 296 296 296 296 296 296 296 296 296 296 295 295 296 296 296 296 296 296 297 297 297 296 295 295 295 296 297 298 298 299 300 300 301
302 302 302 302 302 300 298 297 297 298 299 300 301 302 302 302 302 302 301 301 302 302 302 302 302 301 300 300 298 296 294 293 292 292 292 292 292 292 292 292 293 293 293 294 295 295 296 296 296 296 296 296 296 296 296 296 296 295 296 296 295 296 295 295 296 296 295 295 296 296 297 297 297 296 295 295 295 295 297 297 298 299 300 300 300
302 302 302 302 300 298 297 297 298 299 300 301 301 302 302 302 302 303 302 302 301 301 301 302 302 301 301 300 298 297 295 293 292 292 292 292 292 292 292 292 292 293 293 294 295 296 296 296 296 296 296 296 296 296 296 296 295 295 296 295 295 295 295 295 295 295 295 295 295 296 296 296 297 297 296 295 294 294 296 297 298 299 299 300 300
302 302 302 301 298 296 296 298 300 301 302 302 302 303 302 302 302 302 302 301 301 301 301 301 301 301 301 300 299 297 294 292 292 292 292 292 292 292 292 292 292 293 294 295 295 296 297 297 297 297 296 296 296 296 296 296 295 295 296 296 295 295 295 295 295 295 295 295 295 296 296 296 297 297 296 295 294 294 295 296 298 299 300 300 300
302 302 302 299 297 296 298 300 302 302 302 302 303 303 303 303 302 302 301 301 300 300 301 301 300 300 300 300 299 298 295 292 292 293 292 292 292 292 292 292 292 293 294 294 295 296 297 297 297 297 296 296 295 295 296 296 295 295 296 296 295 295 295 295 295 295 295 295 295 295 296 296 296 297 297 296 295 294 294 295 296 298 299 300 301
302 302 301 299 299 300 301 303 303 303 303 303 303 303 303 302 302 302 302 301 301 300 301 301 300 299 299 299 299 298 295 292 292 292 292 292 292 292 292 292 292 293 293 294 295 295 296 297 297 296 296 296 295 295 295 296 295 295 295 296 295 294 295 295 294 295 295 295 295 295 296 296 296 297 297 296 295 294 294 294 295 296 297 298 300
302 301 300 300 301 303 303 303 303 303 303 303 303 303 302 302 302 303 303 303 302 300 300 301 301 299 298 298 298 297 294 292 292 292 292 292 292 291 292 292 292 293 294 294 295 295 296 296 296 296 296 295 295 294 294 295 295 295 295 296 295 294 294 294 294 294 295 295 295 295 295 296 296 296 297 297 295 295 294 294 294 294 295 297 298
302 301 301 302 303 303 302 302 302 303 302 302 302 302 301 301 301 301 301 302 302 300 299 299 300 299 298 296 295 294 293 292 292 292 292 292 292 292 292 292 293 294 294 295 295 295 295 296 296 296 296 295 295 295 294 294 295 295 295 295 295 294 294 294 294 294 294 294 294 295 295 296 296 296 297 297 296 295 295 294 294 294 294 295 296
302 302 302 303 303 302 302 302 303 303 303 302 302 302 302 300 297 296 297 298 298 296 295 295 296 296 296 294 293 292 292 292 292 292 292 292 292 293 293 294 294 294 294 295 296 296 295 295 296 295 295 295 295 295 294 294 295 295 294 295 295 295 294 294 294 294 294 294 294 294 295 295 296 296 296 297 296 296 295 295 294 294 294 294 295
302 302 303 303 302 302 302 303 303 303 303 303 303 302 301 297 294 293 294 294 294 294 293 293 293 293 293 293 293 292 292 292 292 292 292 292 293 294 295 295 296 296 295 295 296 296 296 296 296 295 295 295 295 295 294 294 294 295 294 294 295 294 293 293 293 294 294 294 294 294 295 295 296 296 296 297 297 296 295 295 295 295 294 294 294
302 303 303 303 302 302 302 303 302 302 301 299 299 299 297 295 294 294 294 294 293 293 293 293 293 293 293 293 293 293 292 292 292 292 292 292 294 295 296 296 297 297 296 295 296 296 296 296 296 296 295 295 295 294 294 294 294 294 293 293 294 294 293 293 293 293 294 294 294 294 295 295 295 296 296 297 297 296 296 296 295 295 295 294 294
302 303 304 303 302 302 303 302 302 301 300 298 298 299 299 299 298 297 296 296 295 294 293 293 293 293 293 293 293 293 293 292 292 292 292 293 294 296 297 297 297 297 297 296 296 296 296 296 296 295 295 295 295 294 294 294 294 294 293 293 293 293 292 292 292 293 294 294 294 294 294 295 295 296 296 296 297 297 296 296 296 295 295 295 294
302 303 303 301 301 303 303 302 302 302 302 301 301 301 302 303 302 300 300 300 299 297 296 295 294 293 293 293 293 293 292 292 292 292 292 294 295 296 297 298 298 297 297 297 296 296 296 296 296 295 295 295 294 294 294 293 293 293 292 292 292 291 291 291 291 292 293 293 293 294 294 294 295 295 296 296 296 297 297 297 296 296 295 295 294
303 303 302 301 301 303 302 302 303 302 302 302 303 302 303 303 302 301 302 301 300 300 300 299 298 297 296 295 295 294 293 293 293 293 293 294 295 296 297 298 298 298 298 297 296 296 296 296 296 295 295 294 294 294 294 293 292 292 292 291 291 290 290 290 290 291 293 293 293 293 294 294 294 295 295 296 296 296 297 297 297 296 296 295 295
302 303 302 300 301 303 302 301 302 302 302 302 302 302 302 302 301 301 301 300 300 301 301 301 301 299 298 298 298 296 295 294 295 295 294 294 296 297 298 298 298 298 298 298 297 296 296 296 296 295 295 294 293 293 293 293 292 291 291 291 290 290 290 290 290 291 292 292 292 293 294 294 294 294 295 296 296 296 296 297 297 296 296 296 295
303 303 302 300 302 303 302 301 302 302 302 302 302 302 302 301 300 300 301 300 300 301 301 301 301 300 299 300 300 298 297 296 297 297 297 296 296 297 298 298 298 298 297 298 298 297 296 296 296 295 295 294 293 292 293 292 291 291 291 290 289 289 289 289 289 290 291 292 292 292 293 293 294 294 295 295 296 296 296 296 296 296 296 296 296
303 303 301 300 301 303 302 301 302 302 302 302 302 302 301 301 300 301 301 301 301 301 300 300 301 301 300 300 300 299 298 297 297 298 298 298 297 297 298 298 298 298 298 298 298 297 297 296 295 295 294 293 292 292 292 292 291 291 291 290 290 289 289 289 289 290 290 291 291 292 292 293 293 294 294 295 295 296 296 296 296 296 296 296 296
303 303 301 300 301 303 302 302 302 302 302 302 302 301 301 301 301 301 301 301 301 301 299 299 300 301 301 301 300 299 298 296 296 297 298 299 298 298 298 298 298 298 298 298 297 298 297 296 295 294 294 293 293 293 293 293 292 292 292 291 290 290 289 289 289 289 289 290 290 291 292 292 293 294 294 294 295 295 296 296 296 296 296 296 296
304 303 300 301 302 302 302 302 302 301 301 301 301 301 301 301 301 301 300 300 301 301 300 300 300 301 300 301 300 299 298 297 295 295 297 299 299 298 298 298 298 298 298 298 298 298 298 296 295 293 293 293 293 293 293 294 294 293 293 292 291 290 290 289 289 289 289 289 289 290 291 291 292 293 294 294 294 295 295 295 295 296 296 296 296
304 302 300 301 302 302 302 302 302 301 301 300 300 300 301 301 300 300 300 300 300 301 300 300 300 300 300 300 300 300 299 299 297 295 296 298 299 299 298 298 298 298 298 298 298 298 297 296 295 293 292 293 293 293 293 294 294 294 294 293 292 291 291 290 290 289 289 289 289 289 290 290 291 292 293 294 294 294 294 295 295 295 295 295 296
303 301 300 301 302 302 302 302 302 301 300 300 299 300 301 301 301 300 300 300 300 300 300 300 300 300 300 300 300 299 299 299 297 295 295 297 298 299 299 299 298 298 298 298 298 297 297 297 295 293 292 293 293 292 293 293 294 295 295 294 294 292 291 291 291 290 290 289 289 289 289 289 289 291 292 293 294 294 294 294 295 295 295 295 295
302 301 299 300 301 302 301 301 301 301 300 300 300 300 301 301 301 300 300 300 299 299 300 300 300 300 300 299 299 299 299 298 297 297 297 298 299 300 299 298 298 298 298 298 298 297 297 296 295 293 293 293 293 293 292 293 294 295 295 295 294 294 292 291 291 291 291 290 290 289 289 289 289 289 291 292 294 294 293 294 294 294 295 295 295
302 301 300 299 300 301 301 301 301 301 301 301 301 301 300 300 300 300 300 300 299 299 299 299 299 299 299 299 299 299 298 298 298 299 299 300 300 299 299 298 298 298 298 298 298 297 296 296 295 293 293 293 292 293 292 292 293 294 295 295 295 294 293 292 291 291 291 291 291 290 289 289 288 289 289 291 292 294 294 293 294 294 294 294 295
302 302 301 300 299 300 301 301 301 301 301 301 301 301 300 300 300 300 300 300 300 299 299 299 299 299 299 299 299 299 299 299 299 299 299 299 299 299 298 298 298 298 298 298 298 297 297 296 295 294 293 293 293 293 293 292 292 293 294 295 295 295 294 292 291 291 291 292 292 291 290 289 289 288 288 289 291 292 293 293 293 293 294 294 294
302 302 301 300 299 299 299 300 301 301 301 301 301 301 300 300 300 300 300 300 300 300 300 299 299 299 299 299 299 299 299 299 299 299 299 299 298 298 298 298 298 298 298 298 298 297 297 296 295 294 293 293 293 293 293 293 292 292 293 294 295 295 294 293 292 291 291 291 291 292 292 291 290 289 289 288 289 290 292 293 293 293 293 293 294
302 302 302 301 300 299 299 300 300 300 301 301 301 301 301 301 301 300 300 299 299 299 299 299 299 299 299 299 299 299 299 299 299 299 299 299 299 298 298 298 297 297 297 297 297 297 296 296 295 294 293 293 293 293 293 293 293 293 293 293 294 295 294 293 292 291 291 291 291 292 292 292 291 290 290 289 288 289 290 292 293 293 293 293 293
302 302 302 301 301 300 300 300 301 301 301 301 301 301 301 301 301 301 300 300 300 300 299 299 299 299 299 299 299 299 299 299 299 299 299 299 299 299 298 298 298 297 297 297 297 297 297 296 296 295 294 293 293 293 293 293 293 293 293 293 294 294 294 293 292 291 291 291 292 292 292 292 292 291 291 290 289 289 288 289 291 292 293 292 292
302 302 302 301 301 301 301 301 301 301 301 301 301 301 301 301 301 301 301 300 300 300 300 300 299 299 299 299 299 299 299 299 299 300 300 299 299 299 299 299 299 298 298 298 297 297 297 297 297 296 295 294 293 293 293 293 293 293 293 293 293 294 294 293 292 292 292 292 292 292 292 292 292 292 292 291 291 290 289 289 290 292 292 292 292
302 302 302 302 301 301 302 302 302 301 301 301 301 301 301 301 301 300 300 300 300 300 300 300 300 300 300 300 300 300 300 300 300 300 300 300 299 299 299 299 299 299 298 298 298 298 297 297 297 297 297 296 295 294 294 293 293 293 293 293 293 294 294 294 293 292 292 292 292 293 293 293 293 293 292 292 292 291 290 289 289 291 291 292 291
302 302 302 302 302 302 302 302 302 302 302 302 301 301 301 301 301 300 300 300 300 300 300 300 300 300 300 300 300 300 300 300 300 300 300 300 300 299 299 299 299 299 299 298 298 298 298 298 298 297 297 297 297 296 295 294 294 293 293 293 293 294 294 294 293 293 293 293 293 293 293 293 293 293 293 293 292 292 292 291 290 290 291 291 291
Wind_Speed
12 11 12 12 12 12 12 11 11 10 10 10 11 11 11 11 12 13 14 13 12 11 11 11 10 9 9 9 9 9 8 8 9 9 10 12 13 12 12 13 14 15 15 15 15 16 16 15 14 13 15 16 17 18 19 20 22 22 22 22 22 21 21 22 24 29 32 31 31 34 37 37 36 34 33 32 30 27 25 24 24 25 26 27 28
12 12 12 12 13 14 13 13 13 12 12 11 12 13 13 13 13 14 14 13 12 12 12 12 10 9 9 9 9 9 9 9 9 10 11 14 14 14 14 15 15 15 15 16 15 14 13 12 13 15 16 18 18 20 21 21 23 24 24 25 25 24 23 24 25 28 33 35 35 36 38 36 36 38 37 34 32 28 25 24 25 24 23 25 27
12 13 13 12 13 14 13 13 13 13 13 13 14 15 16 15 14 13 13 13 13 12 12 11 11 10 10 10 10 10 10 10 10 10 12 15 15 15 15 16 16 15 15 15 14 14 14 14 15 18 19 19 20 21 23 24 26 27 28 27 27 28 27 26 26 27 31 35 36 36 37 37 37 37 36 33 32 29 25 24 25 25 24 22 25
13 13 13 13 13 14 14 14 13 13 15 15 16 16 15 14 13 13 13 13 14 13 11 10 10 11 11 11 11 12 12 12 11 10 12 16 16 14 15 15 15 15 14 14 15 16 16 16 17 19 20 20 21 23 25 27 29 30 31 31 30 30 30 28 28 27 28 32 35 34 35 37 36 35 34 32 31 29 27 27 25 24 24 22 23
13 14 14 14 14 14 14 14 14 15 16 16 16 15 15 14 13 13 13 13 13 13 12 10 11 12 12 12 13 13 14 14 14 12 11 15 16 14 14 14 13 13 13 14 16 16 16 16 16 18 19 21 23 26 28 30 32 33 33 32 31 31 30 30 28 27 27 29 32 33 33 34 35 34 33 31 31 30 30 30 26 22 23 23 22
13 14 15 15 15 15 14 14 16 17 16 15 15 15 14 14 14 13 13 13 13 13 12 11 12 13 13 13 13 14 14 14 16 15 13 14 16 13 13 13 12 12 13 14 14 15 15 14 15 17 19 22 25 28 30 32 34 34 33 31 31 30 30 30 29 28 28 29 30 32 32 32 33 35 33 30 31 32 31 30 27 22 22 24 23
14 15 15 15 15 16 16 16 16 16 15 15 14 14 14 14 15 15 14 14 13 13 12 12 12 13 13 14 14 14 15 16 16 17 14 12 14 13 12 12 12 12 13 13 13 14 14 13 15 17 19 23 26 28 32 34 34 34 33 31 31 30 30 31 31 30 29 29 29 30 31 31 32 34 34 32 31 31 29 29 30 28 26 26 27
15 15 15 15 15 17 17 16 16 15 14 14 13 14 13 13 15 16 16 15 14 13 12 11 11 13 13 13 14 14 15 16 17 18 16 13 12 13 12 12 12 12 12 12 13 14 13 13 15 17 20 23 25 29 32 33 34 34 32 30 30 30 30 32 33 31 29 28 30 30 31 31 31 32 34 35 34 33 31 30 32 34 32 30 29
16 16 15 15 17 18 17 16 15 14 14 14 14 14 14 14 15 16 16 16 15 13 11 9 9 12 13 13 14 15 16 18 19 18 17 14 12 13 13 12 11 12 13 12 12 13 13 15 16 16 19 23 25 29 32 31 32 33 31 30 30 29 30 31 31 31 29 29 30 31 32 32 33 34 34 34 34 35 34 33 33 33 32 33 32
16 16 16 17 18 17 16 15 14 14 14 14 14 15 15 15 15 15 16 16 15 14 11 9 9 12 12 13 14 16 17 19 19 18 16 14 12 12 13 11 11 12 12 12 13 13 14 17 17 17 21 24 27 31 32 29 29 29 29 30 29 28 30 30 30 29 30 31 31 32 34 35 35 34 34 34 34 34 35 34 34 33 33 35 36
16 17 17 17 17 16 15 14 14 14 14 14 15 15 15 15 15 15 17 16 15 14 11 10 10 12 12 13 14 16 17 18 17 16 14 13 12 12 13 11 10 12 12 12 13 14 15 18 18 19 25 27 28 30 30 28 27 27 28 30 29 28 28 28 29 29 30 32 32 32 33 36 37 36 36 35 34 34 35 35 35 36 35 35 35
17 18 18 17 16 16 15 15 14 15 15 15 16 15 14 15 15 15 16 15 15 14 12 11 10 11 12 13 14 16 16 16 16 15 14 13 13 13 13 10 9 11 12 12 14 15 16 19 19 22 27 28 27 30 30 29 27 26 29 32 31 30 28 27 27 29 30 31 31 32 33 36 37 38 38 38 38 39 39 38 36 36 35 34 34
19 18 18 17 16 16 15 15 15 15 15 15 16 16 16 16 15 15 15 14 13 13 12 11 8 9 12 13 14 15 16 16 16 15 14 13 14 14 12 10 9 11 12 12 14 14 16 21 23 26 29 26 26 30 32 32 32 30 31 34 34 34 33 30 28 28 30 32 33 35 36 37 38 39 39 40 42 43 42 40 38 37 37 37 37
20 19 18 17 16 15 14 14 14 15 16 16 17 18 18 17 17 16 15 14 13 11 11 11 9 8 10 13 13 14 15 15 15 15 14 13 13 13 11 10 9 11 12 12 12 13 17 22 25 28 28 24 26 30 32 34 36 33 33 35 36 35 34 34 31 30 32 35 37 39 39 38 38 40 40 40 41 42 41 41 39 39 40 41 40
20 19 18 17 16 15 15 16 17 18 18 17 17 18 18 17 16 15 14 13 13 12 11 12 11 8 9 12 13 14 15 15 14 14 14 12 11 11 10 9 9 10 13 13 10 13 19 22 24 28 26 22 25 29 31 34 36 35 33 35 37 36 35 35 32 31 35 39 40 41 41 39 39 40 41 40 40 39 38 38 37 37 39 40 41
21 19 18 17 17 17 17 17 18 18 18 18 18 18 18 18 16 16 15 14 13 12 11 11 11 8 9 11 13 13 14 15 14 14 14 12 12 11 9 7 7 7 12 13 10 14 20 22 23 26 24 22 24 28 30 33 35 36 35 36 38 37 35 33 31 32 37 41 41 42 42 41 41 42 40 38 38 36 35 35 34 33 33 35 38
21 20 19 18 18 18 17 17 17 18 18 18 19 18 17 17 16 15 15 13 13 13 12 13 12 11 10 11 13 14 14 15 15 14 14 13 13 13 10 7 6 5 8 11 11 16 20 20 23 25 24 23 24 26 29 32 35 37 38 38 39 40 38 34 33 37 41 43 43 44 44 44 44 44 42 37 34 32 31 31 29 28 29 32 36
22 21 20 19 18 18 18 18 17 17 18 18 19 18 17 16 15 14 13 12 11 11 11 12 13 13 13 13 14 15 15 16 15 15 14 14 14 15 13 10 8 6 8 10 10 16 18 18 22 25 25 24 24 26 29 32 36 38 39 39 40 42 41 37 36 40 45 46 47 48 48 46 45 46 45 39 33 29 28 27 26 25 28 31 34
22 21 20 20 19 18 18 18 17 17 18 19 19 18 16 15 14 13 12 10 9 8 9 10 11 13 15 16 16 16 16 16 16 15 15 14 14 15 15 13 9 6 7 10 9 12 14 17 22 23 24 25 26 26 28 32 36 38 38 39 40 41 41 40 39 41 45 49 52 52 51 49 47 47 47 40 33 29 27 25 24 24 27 29 32
22 22 21 20 19 19 18 18 18 18 19 19 17 16 14 13 11 10 9 8 7 7 8 10 10 11 12 14 16 16 16 16 16 15 15 14 14 15 16 16 11 6 5 9 10 11 12 16 20 21 23 26 27 25 26 30 34 36 37 38 38 38 39 41 41 41 44 50 53 53 54 52 50 50 49 42 36 31 27 24 22 21 24 27 29
24 23 22 21 20 19 19 19 19 19 19 18 16 15 14 13 12 11 10 9 8 6 6 7 8 9 9 11 13 15 15 15 15 15 14 14 14 15 17 17 14 9 8 10 12 12 13 17 20 21 23 26 26 25 25 27 32 34 34 35 36 36 38 40 40 41 45 50 53 54 55 54 53 53 50 45 39 35 30 25 21 19 19 21 24
25 24 22 21 20 20 20 20 20 19 18 17 16 15 14 12 11 10 10 10 9 7 6 4 4 6 6 8 10 13 14 14 14 14 13 13 14 15 16 17 15 12 12 13 13 13 15 18 21 23 23 24 25 26 24 25 30 32 31 33 35 35 37 38 39 40 44 49 52 54 56 56 55 54 51 47 43 38 33 28 23 19 15 13 16
25 24 22 22 21 21 21 21 20 19 17 16 15 14 13 12 10 9 9 9 8 7 6 5 5 5 4 5 8 11 12 13 13 13 13 13 13 14 15 15 14 13 13 13 14 15 17 20 22 24 23 22 24 26 24 24 28 29 29 32 34 34 36 37 37 38 42 48 52 53 55 57 55 53 51 48 45 41 37 32 27 21 15 12 13
25 24 23 22 22 23 22 21 19 18 16 15 14 13 12 11 9 7 6 6 6 6 6 5 5 4 3 3 5 8 10 11 12 12 13 13 13 14 15 14 13 13 13 13 13 15 18 20 20 23 25 23 23 24 24 25 28 28 28 31 33 33 35 36 36 37 40 46 50 51 53 55 54 53 52 48 46 43 39 35 31 25 18 14 15
26 25 24 23 23 24 23 20 18 16 15 13 12 12 11 10 9 9 8 7 6 6 6 5 5 4 3 3 2 5 8 10 11 12 12 13 13 14 14 14 13 13 14 14 13 15 18 19 20 22 24 24 24 22 21 24 29 28 27 30 33 33 34 36 36 37 39 43 47 48 50 52 52 52 52 48 45 44 43 39 35 30 25 20 18
27 25 23 23 23 23 21 19 17 15 13 12 11 10 10 9 8 8 8 7 7 7 6 5 4 4 4 3 1 4 7 9 10 10 12 13 13 14 14 14 13 14 15 16 16 17 18 19 21 22 23 24 25 23 20 22 27 28 27 29 32 33 33 35 36 36 38 41 43 45 48 51 52 53 53 50 46 45 45 44 41 37 34 29 23
26 24 24 23 22 20 19 17 16 14 13 11 9 9 9 9 10 9 9 8 7 6 6 5 5 4 4 3 2 2 5 7 9 10 11 13 14 14 14 14 14 15 17 18 19 20 20 21 22 22 21 23 25 26 24 23 26 28 28 29 32 34 33 33 35 35 37 40 41 43 47 49 51 53 54 52 48 45 45 46 45 42 39 34 29
26 25 24 23 21 19 18 17 16 15 13 12 11 10 10 10 13 14 13 12 11 9 8 8 6 5 4 4 3 2 3 5 8 9 11 13 13 14 15 15 16 17 18 20 20 21 22 22 22 22 22 23 26 28 28 27 27 30 30 28 32 35 33 33 35 36 36 39 40 42 46 49 49 51 54 54 50 45 44 46 47 46 43 39 35
26 25 24 23 21 19 18 18 16 14 14 14 14 14 13 12 13 14 15 14 13 10 9 9 8 6 4 4 4 2 1 5 7 9 11 12 12 13 16 17 18 18 19 19 20 21 22 22 21 21 23 25 26 28 30 30 29 31 31 29 31 35 35 35 37 37 36 39 41 41 44 47 48 49 52 54 51 47 45 45 47 48 47 44 41
26 25 23 22 20 20 19 18 16 14 14 15 16 17 14 10 8 10 11 12 11 9 6 7 7 5 4 3 2 1 2 5 6 8 9 10 10 12 15 18 20 20 19 18 18 20 22 21 21 21 22 24 26 27 29 29 29 30 32 31 31 34 36 36 36 36 36 38 40 40 42 46 46 46 50 53 52 48 46 45 45 47 48 48 46
26 25 23 21 21 21 19 17 16 16 14 14 17 18 14 8 7 9 9 9 9 8 6 6 5 4 3 3 2 2 3 5 6 7 8 8 8 11 15 17 18 19 20 19 18 19 20 20 20 21 22 23 24 25 27 28 28 29 31 32 31 33 35 36 37 35 35 37 39 39 40 44 45 45 46 49 51 50 47 46 46 45 47 48 48
27 25 23 22 22 21 18 16 18 17 14 13 16 16 12 9 10 10 8 7 7 6 6 5 5 4 3 2 2 3 4 5 6 6 7 7 8 11 14 15 17 17 18 19 19 18 17 19 19 20 21 22 23 24 25 26 26 28 30 31 31 32 33 35 36 34 34 36 39 39 39 41 43 43 43 45 48 50 49 48 47 45 45 46 47
27 25 22 23 23 20 17 17 18 16 13 12 13 13 10 8 7 7 7 6 5 5 5 4 4 4 3 3 3 4 5 5 6 6 7 7 7 10 12 13 15 16 16 17 18 16 15 17 19 19 20 21 22 23 24 25 25 26 28 29 30 31 31 33 34 33 33 35 37 37 38 39 41 42 42 42 45 47 48 47 47 46 44 43 44
27 24 23 24 24 20 18 19 18 16 15 13 11 11 9 6 4 4 4 2 2 3 3 4 4 4 4 4 4 4 4 5 6 7 7 7 8 10 11 11 13 15 14 15 16 15 14 16 18 18 19 20 21 21 22 24 24 25 26 27 28 29 30 32 33 32 32 34 36 36 36 37 39 40 41 41 42 45 46 46 46 45 44 42 41
26 23 22 24 23 19 19 19 17 16 16 15 13 12 11 8 5 4 3 2 1 1 1 1 3 4 4 5 5 5 5 5 5 6 7 7 8 10 11 11 12 13 13 12 14 15 14 14 16 17 18 19 20 20 21 22 23 24 25 26 27 28 29 30 32 31 30 32 35 35 35 36 37 38 39 40 40 42 44 44 44 43 43 42 40
25 21 21 23 22 18 18 19 17 16 16 15 13 12 13 11 8 5 4 4 2 3 4 4 3 4 5 4 5 6 6 4 5 6 8 8 9 10 11 12 12 11 11 11 13 14 13 13 15 16 16 18 19 19 19 21 22 23 24 25 26 27 28 29 29 29 29 30 33 34 35 35 35 35 37 38 38 38 40 42 43 42 41 40 40
23 21 22 24 22 18 18 18 17 16 16 15 13 12 12 12 10 9 8 6 5 5 5 6 6 6 6 6 5 6 6 5 6 8 9 10 10 10 10 11 11 10 11 11 12 12 12 12 13 14 15 17 18 17 18 20 21 22 24 26 26 26 26 27 27 27 28 29 31 32 33 34 33 33 34 36 36 36 36 38 40 41 39 38 39
23 22 24 25 21 18 18 18 18 17 16 15 14 12 11 11 10 10 10 8 9 9 7 6 9 10 9 6 5 6 7 6 5 7 9 10 10 10 10 10 9 9 10 11 11 11 12 12 12 13 14 16 16 16 17 19 21 22 24 26 27 26 26 26 25 26 26 27 28 29 31 32 31 31 31 33 34 34 34 34 35 38 38 38 37
21 21 24 24 21 19 18 18 19 19 17 16 14 12 11 11 10 10 10 10 10 10 8 7 8 9 9 7 7 7 7 7 8 8 7 8 10 10 8 8 8 9 10 10 10 10 12 12 13 13 14 15 15 16 16 18 20 22 23 25 27 27 27 26 25 25 26 26 26 27 28 29 29 28 28 30 31 32 32 32 31 32 35 36 36
20 21 24 25 22 20 19 17 18 19 18 16 14 12 12 12 11 10 10 10 10 9 8 8 8 8 9 10 10 9 8 10 13 11 7 7 9 10 8 8 8 9 10 10 10 10 11 13 13 14 14 15 15 16 16 17 19 21 22 24 26 27 27 27 26 25 25 25 24 25 26 26 27 25 25 26 28 29 30 31 30 29 29 31 33
20 22 25 25 21 20 19 17 15 16 18 17 14 12 12 12 11 11 10 10 10 10 10 10 9 9 11 12 13 13 13 15 18 14 9 8 10 10 9 9 10 10 10 10 10 11 12 13 14 15 15 15 15 16 16 16 17 20 22 23 24 25 26 26 26 26 25 24 23 24 24 24 25 24 22 22 24 25 27 29 29 28 27 27 29
21 22 26 26 22 19 19 18 15 14 17 17 14 13 12 11 11 11 11 11 11 11 11 11 10 11 12 13 14 15 16 17 18 15 11 9 9 9 10 11 11 10 10 11 12 12 12 14 16 15 15 15 15 15 16 15 15 17 20 22 23 24 25 26 25 26 25 24 23 23 22 22 23 22 21 20 20 22 24 26 27 27 27 26 25
21 21 25 27 24 20 18 18 16 15 15 16 14 13 13 12 11 11 11 11 12 12 12 12 11 11 13 14 14 15 16 16 14 12 8 6 6 8 10 12 12 11 11 13 14 13 12 15 17 16 15 15 15 15 15 16 14 14 16 19 22 22 23 24 25 24 25 25 23 22 22 21 21 21 20 19 18 19 21 23 23 24 25 26 24
19 17 20 25 26 22 17 17 17 15 15 15 14 13 13 13 12 11 10 10 11 12 13 13 12 12 14 15 15 15 15 14 11 8 7 7 8 10 13 14 14 12 12 14 15 14 14 16 18 17 15 15 15 15 15 15 14 13 13 16 20 21 21 22 24 24 23 24 24 22 21 21 20 19 18 17 16 16 18 20 20 20 22 23 23
17 14 16 21 25 24 19 16 16 15 14 15 15 14 14 14 13 12 12 11 11 12 13 13 12 12 14 15 15 15 14 12 9 7 8 9 12 13 14 14 14 14 14 15 16 16 16 18 19 18 16 15 15 15 15 15 15 14 12 13 17 20 20 21 22 22 22 22 22 22 21 21 20 19 17 16 15 13 13 15 17 18 19 20 19
18 15 15 17 21 23 21 18 17 16 14 14 15 14 15 15 14 13 13 12 12 12 13 13 13 13 14 15 15 15 14 12 11 11 12 13 14 14 14 14 14 14 14 15 16 18 19 19 20 20 18 16 15 15 15 15 15 15 13 11 14 18 20 20 21 21 21 20 20 21 20 20 20 19 17 16 14 12 10 11 12 14 16 16 15
19 17 17 16 17 20 20 19 17 16 15 15 15 15 15 15 14 14 14 14 14 14 14 14 14 14 14 15 15 15 15 14 13 13 14 14 14 14 14 15 15 15 15 17 19 20 21 21 20 21 20 19 18 17 16 15 15 16 14 12 13 17 19 20 20 20 20 19 19 19 19 18 18 18 17 17 16 13 10 9 9 10 13 14 13
20 19 18 17 16 17 18 17 17 16 16 15 15 15 15 14 14 14 14 15 15 15 16 16 15 15 15 15 16 16 16 16 15 16 16 15 15 16 16 16 16 16 17 18 20 22 22 23 22 22 22 22 21 19 18 16 16 16 15 14 15 17 18 18 19 19 19 19 18 17 17 17 17 17 16 16 16 15 13 10 7 8 12 14 13
21 19 19 19 18 17 17 17 17 17 16 16 16 16 15 15 15 15 15 15 15 15 16 16 16 16 16 16 16 16 16 16 17 17 17 16 16 17 18 18 19 19 19 20 21 22 23 24 25 24 24 23 22 21 20 18 17 17 17 17 17 18 17 17 18 19 19 19 19 17 16 16 16 16 16 15 14 14 14 11 8 7 10 13 14
20 19 18 19 19 17 17 17 16 16 16 16 16 16 16 16 16 16 16 16 16 16 16 16 16 17 16 16 16 17 16 16 17 17 17 17 18 19 19 18 19 20 20 20 21 21 22 25 27 28 27 26 25 24 23 21 20 19 18 18 18 17 17 17 18 19 19 20 20 18 17 16 15 15 15 15 13 12 12 11 9 7 8 11 12
18 18 17 17 18 17 17 17 16 15 15 16 16 16 16 16 17 17 17 18 18 18 18 17 17 17 17 17 17 17 17 18 18 18 18 18 19 19 19 18 20 22 22 21 21 23 25 28 29 29 29 28 28 27 25 24 23 21 20 20 19 19 18 17 18 19 19 20 20 19 18 17 15 15 15 15 14 13 11 10 10 8 7 10 12
Wind_Direction
140 138 136 136 130 122 118 114 109 105 106 105 105 107 108 107 107 110 110 106 103 101 94 86 81 80 78 75 73 69 68 70 72 76 74 68 62 56 58 55 43 37 33 27 22 23 25 18 1 347 342 344 348 351 351 351 350 349 346 342 338 334 330 324 316 311 311 313 312 314 318 320 320 321 320 318 315 310 304 298 290 288 288 288 288
133 127 126 125 121 119 118 116 113 111 111 109 109 111 108 108 112 116 114 108 105 102 93 83 78 82 82 78 77 75 74 75 76 82 79 68 60 55 56 53 43 38 34 25 22 23 21 9 354 347 349 354 359 359 357 358 358 355 351 345 339 336 332 326 319 314 313 315 317 318 321 322 320 322 324 323 322 320 314 308 304 299 291 287 286
126 122 124 123 121 121 118 116 115 113 114 114 116 115 111 109 111 112 112 109 103 97 93 90 86 85 85 82 80 78 75 74 74 82 84 71 56 48 50 47 38 37 33 23 21 19 13 9 2 356 360 4 4 3 3 4 2 358 354 350 345 340 337 331 323 317 314 315 318 319 321 322 321 322 324 322 322 323 317 311 308 304 299 291 288
123 121 123 120 117 116 115 115 115 114 116 117 120 120 118 115 112 111 108 102 96 90 85 90 93 91 90 85 81 78 74 71 69 73 79 72 56 41 45 44 32 31 31 21 23 23 16 14 8 0 3 6 4 5 5 3 0 356 353 351 347 342 339 335 329 322 316 314 317 320 320 321 321 321 321 321 320 318 314 311 307 300 298 295 289
124 122 122 118 117 117 117 117 118 120 122 122 121 121 119 116 113 114 113 108 104 95 86 87 91 92 89 84 81 77 71 68 64 58 61 71 63 40 38 43 28 24 29 25 26 26 19 15 7 2 4 4 5 6 4 360 357 354 352 349 345 342 340 338 335 329 322 316 317 320 322 322 322 321 322 321 319 316 312 313 315 310 303 301 296
124 122 120 120 122 121 118 119 123 126 126 123 121 119 117 115 112 110 112 115 114 109 101 95 92 91 88 83 79 74 70 66 62 56 53 68 70 49 34 37 29 23 28 30 29 24 20 14 1 359 4 2 3 6 2 358 357 354 352 349 347 346 344 344 341 335 328 321 319 321 323 324 323 323 323 320 316 315 314 314 314 307 295 289 284
122 123 123 124 125 123 121 125 128 129 128 127 127 124 121 122 119 111 104 103 103 100 95 89 88 88 85 82 78 72 69 64 59 58 53 56 66 60 39 30 29 27 27 30 28 21 19 12 357 359 4 358 358 3 1 357 355 353 351 348 347 348 348 348 343 335 327 322 320 320 320 322 321 321 322 321 317 315 315 313 309 303 295 287 278
125 126 127 127 128 129 131 132 133 132 132 132 131 131 131 132 130 123 112 103 96 91 86 81 82 82 78 77 74 70 69 66 59 56 52 49 59 67 53 33 24 26 28 28 26 19 11 4 2 6 3 353 354 0 0 355 351 351 351 349 348 349 349 347 343 336 328 323 322 321 319 320 319 318 320 321 319 316 315 312 308 307 305 300 290
130 130 131 132 135 137 135 134 136 137 138 136 134 131 128 128 130 128 121 112 103 97 92 85 79 76 71 67 66 62 60 59 56 50 49 51 56 65 61 40 21 24 29 26 23 16 3 0 9 10 358 349 352 358 360 355 350 351 356 356 355 354 350 347 344 337 330 326 324 323 321 319 319 319 319 318 315 313 312 310 307 306 305 302 297
135 135 136 136 137 137 134 133 136 137 138 139 138 136 133 132 134 134 130 122 112 105 102 95 81 74 68 60 59 58 52 51 49 43 44 50 54 63 63 46 26 25 26 24 20 9 358 4 13 6 354 349 352 357 359 358 356 358 3 4 2 357 350 347 345 339 332 329 325 323 321 318 318 318 315 313 312 309 309 308 305 303 302 300 297
139 136 134 134 135 133 131 130 133 136 139 143 145 146 145 142 139 138 135 128 119 113 109 97 78 68 64 55 53 54 51 49 47 41 41 46 51 60 59 49 33 23 21 24 18 1 358 12 12 357 352 353 354 357 0 2 2 5 9 10 7 0 352 347 345 340 334 329 325 323 322 319 320 319 315 313 312 309 306 304 301 300 299 297 295
139 134 132 132 130 128 128 132 139 146 150 152 150 145 141 138 136 135 132 126 123 119 109 92 70 59 59 55 52 52 50 49 45 40 40 44 51 60 58 52 37 24 23 22 10 358 358 7 2 351 353 357 359 3 5 5 7 11 13 13 11 7 2 355 348 341 336 333 330 330 329 324 322 321 319 316 312 309 306 301 297 295 294 292 290
138 135 133 132 132 137 147 153 158 158 152 149 144 137 133 131 129 126 121 117 118 118 108 98 80 59 56 55 52 51 50 48 43 39 38 42 52 59 55 51 38 25 26 18 4 357 352 353 354 352 354 359 5 8 9 7 7 10 13 12 9 7 7 6 359 351 348 346 341 338 337 330 323 321 320 318 313 310 306 300 296 292 288 286 285
140 138 139 142 147 156 163 159 152 145 140 137 135 131 127 123 118 114 110 107 106 106 105 103 93 67 55 56 54 51 50 48 42 39 38 40 52 56 47 43 36 21 20 20 6 350 344 347 352 353 355 1 6 8 10 9 6 7 8 6 3 3 6 7 4 360 360 358 350 346 344 337 327 323 323 321 316 310 305 300 295 290 285 284 283
144 147 150 153 156 155 151 145 140 136 135 133 132 129 124 119 116 111 107 103 98 95 97 100 98 81 60 58 55 51 51 49 43 40 39 38 49 59 51 40 34 15 10 17 6 342 342 347 351 353 358 7 8 4 6 8 6 6 5 1 359 359 2 2 1 2 3 1 356 351 347 343 337 331 328 325 318 313 308 301 294 290 286 285 284
148 150 149 147 147 143 140 142 141 137 135 133 130 128 123 118 115 109 105 100 94 91 89 92 97 91 74 65 60 55 51 48 43 39 39 37 42 58 65 55 49 27 10 10 355 339 345 348 346 350 360 9 8 4 3 4 5 5 5 2 359 359 0 359 1 4 4 1 357 352 349 347 344 340 336 329 323 319 313 304 295 289 286 285 284
147 145 142 142 142 141 139 139 138 135 135 133 128 124 119 115 111 105 100 94 88 87 86 85 86 81 74 70 65 59 52 47 42 36 36 36 37 49 61 63 72 69 32 16 350 339 350 350 341 347 1 9 8 4 2 3 2 1 2 0 358 359 0 359 2 7 5 1 358 355 351 349 347 345 343 336 330 328 321 310 301 293 290 288 287
145 143 144 145 144 142 139 136 134 135 137 135 129 124 118 114 110 106 102 95 85 80 79 82 83 77 70 65 60 56 49 43 39 33 31 33 34 43 50 50 59 72 59 41 1 344 353 345 334 345 4 11 9 4 2 2 0 358 359 358 356 357 359 358 359 1 1 360 359 357 355 353 350 348 347 342 338 338 331 320 311 303 297 292 289
147 147 147 146 144 143 141 139 138 139 139 134 127 120 114 107 98 92 92 93 89 83 77 76 75 68 61 55 51 49 45 40 35 29 27 29 32 39 42 41 46 53 54 50 18 348 346 336 333 349 6 10 9 5 2 2 360 359 1 359 356 356 356 356 356 356 355 357 359 358 357 356 354 352 351 347 345 345 340 330 321 311 303 295 291
149 149 147 147 147 146 144 143 143 143 140 134 126 120 117 113 108 102 103 107 107 95 80 72 66 60 53 46 42 41 41 39 33 25 23 26 31 35 35 35 38 42 50 44 17 346 336 334 342 357 5 5 5 4 1 1 360 0 2 0 357 354 353 353 354 354 354 356 358 358 358 357 356 355 354 352 351 351 347 339 331 321 311 304 302
151 150 148 149 148 148 147 146 145 143 139 131 125 121 118 117 120 126 129 129 122 100 74 60 53 50 44 36 34 36 36 35 33 27 22 24 29 35 34 33 34 37 47 40 15 351 344 347 357 6 4 360 2 4 2 359 358 358 359 0 359 355 352 350 350 351 354 356 358 359 359 358 358 358 357 357 358 358 355 347 337 330 326 322 322
152 151 151 150 149 151 153 151 148 144 138 133 129 125 120 117 118 118 116 116 116 109 103 89 66 60 47 25 23 31 34 33 31 28 25 25 30 36 37 35 33 35 40 33 15 5 6 6 9 10 3 356 360 6 4 357 356 356 358 359 358 356 354 351 349 350 354 357 359 359 360 360 360 358 358 0 2 3 4 0 349 338 338 347 346
152 151 153 154 154 156 155 152 147 142 136 133 130 127 125 125 123 113 100 99 104 107 110 108 96 88 74 32 16 20 26 29 29 29 28 27 30 36 38 35 31 32 35 28 17 17 19 15 12 11 4 356 359 7 7 359 355 357 359 359 358 356 355 354 353 353 355 357 359 360 0 1 1 359 359 2 5 6 9 9 4 352 347 0 9
153 154 155 157 158 159 155 149 145 140 135 133 130 127 127 128 127 124 116 113 115 115 117 119 113 106 92 64 26 11 14 19 24 27 29 29 31 35 38 36 30 30 36 29 18 20 21 15 11 10 7 359 356 4 9 360 353 357 2 0 358 357 356 355 356 356 356 357 358 359 359 0 0 0 1 3 6 9 11 14 13 7 2 9 23
156 157 159 161 161 160 155 148 144 141 137 137 136 134 133 131 131 135 138 140 138 131 127 125 123 119 106 86 27 0 7 17 24 27 29 31 33 35 38 38 32 35 41 36 25 23 22 15 10 9 6 358 354 1 9 359 352 358 5 1 358 359 358 357 359 359 357 357 357 357 358 359 0 2 5 7 9 12 14 16 16 14 12 17 29
160 159 160 160 159 158 153 147 144 141 138 138 138 139 142 144 144 144 143 143 144 140 135 131 128 126 114 96 30 336 355 17 27 29 31 34 34 35 39 41 39 41 44 40 32 28 23 18 13 9 3 357 354 0 9 1 352 357 5 2 358 0 359 358 2 3 359 357 358 357 358 360 1 3 7 10 13 16 18 18 19 18 16 13 20
161 158 158 156 154 154 152 149 148 147 144 146 148 148 150 154 156 157 156 154 151 145 141 135 127 129 129 114 110 305 335 14 30 31 34 36 35 35 38 39 40 42 42 38 32 26 22 19 14 8 2 358 357 2 10 8 358 358 5 2 358 1 2 0 3 6 1 359 360 358 359 2 3 3 7 11 15 19 22 22 23 24 21 16 16
159 157 156 153 152 155 157 154 152 149 148 155 159 157 162 173 177 175 171 166 162 157 156 156 147 142 158 160 163 225 317 13 29 31 35 36 35 36 40 40 39 39 36 32 27 23 22 18 12 6 3 1 0 1 6 9 2 359 5 4 356 359 3 2 4 7 5 1 1 1 2 5 5 4 8 13 15 19 23 25 26 28 27 23 21
157 156 155 154 156 161 161 155 151 152 160 172 175 170 174 189 194 189 182 177 175 175 172 171 166 161 174 183 180 190 5 26 30 30 33 35 34 37 41 41 37 34 32 29 22 19 19 15 8 5 3 1 1 1 2 5 2 358 2 5 359 358 2 3 3 7 8 4 3 3 4 6 7 6 9 13 16 19 23 26 28 30 32 31 29
157 156 156 157 161 163 159 152 153 161 173 184 184 179 183 194 190 182 180 179 181 185 177 170 171 173 169 160 141 81 35 36 35 31 32 33 34 40 44 40 34 29 27 26 22 18 15 10 5 4 3 360 1 1 0 2 2 357 359 4 2 358 0 2 3 7 10 7 6 7 7 8 8 8 9 13 16 19 22 27 29 31 34 36 35
158 157 158 163 165 162 157 157 164 171 181 192 194 192 194 188 158 155 161 163 165 168 161 155 158 156 136 112 86 47 34 38 34 30 33 33 33 41 43 38 31 26 21 20 21 18 10 4 2 3 2 359 0 1 360 1 1 357 357 2 3 359 359 1 2 6 11 10 8 11 12 10 10 11 11 13 17 19 22 26 30 33 35 37 39
160 159 163 169 167 160 159 165 171 176 185 190 188 183 175 150 132 131 133 136 145 151 146 144 143 131 111 93 72 47 36 36 30 24 27 30 35 43 43 36 29 24 17 15 16 13 5 0 1 1 359 358 359 360 360 1 0 358 358 1 2 359 359 1 1 6 13 12 9 12 14 13 13 14 13 14 17 21 23 26 29 32 36 39 41
161 162 169 172 164 159 165 171 172 178 184 179 172 169 162 147 136 130 121 117 125 128 121 117 115 107 94 80 65 44 32 29 26 24 25 27 36 43 45 39 29 21 14 11 11 7 1 358 359 360 359 357 357 359 359 0 360 357 359 2 1 358 1 3 3 7 15 14 10 13 16 14 15 17 16 16 18 21 24 26 28 31 36 39 41
163 167 175 170 160 160 171 174 173 179 183 182 184 193 205 215 201 172 153 129 126 134 119 89 77 72 62 51 39 30 28 23 19 20 22 26 37 41 41 42 34 21 12 7 4 3 2 358 356 357 357 355 356 359 359 359 359 358 360 4 3 1 5 8 5 8 15 15 11 14 17 16 16 18 18 18 20 22 24 27 29 31 35 39 42
164 172 178 168 158 164 176 175 175 179 181 181 186 192 198 206 208 206 221 241 195 187 213 31 26 10 18 34 26 15 17 18 17 22 20 20 32 36 32 34 35 22 8 358 354 357 3 358 352 355 356 353 356 0 359 357 359 360 2 5 4 5 11 12 7 8 16 17 13 14 18 18 18 19 20 21 22 24 25 28 30 33 36 39 42
164 177 183 169 160 169 180 177 177 180 180 181 183 184 188 192 191 199 229 249 259 281 294 297 298 319 338 355 358 357 360 359 3 13 13 8 16 25 23 23 26 16 358 347 346 353 360 356 349 352 353 351 356 3 1 358 1 5 6 7 5 7 13 14 9 9 17 19 16 16 17 19 19 20 21 23 25 27 27 28 30 33 36 40 43
168 181 185 172 164 172 180 179 180 182 182 183 182 184 190 192 187 190 205 221 227 240 272 280 270 284 313 320 321 333 344 349 354 360 1 358 1 7 10 12 12 358 340 337 342 346 351 351 347 348 349 351 358 5 4 2 5 9 10 11 10 9 12 15 13 12 16 21 21 19 18 18 19 21 22 22 25 28 27 27 29 31 34 39 43
175 184 182 173 170 175 179 181 185 186 184 184 183 185 189 190 191 197 203 211 220 219 223 250 267 284 302 302 289 307 324 336 344 347 349 347 345 347 353 356 349 331 323 330 337 338 339 342 343 343 344 348 356 5 6 4 8 11 11 11 12 13 13 14 15 15 17 21 22 22 21 18 18 21 24 23 24 27 29 28 28 29 31 36 40
179 187 181 172 174 179 180 184 190 188 182 182 184 189 193 193 195 202 202 208 227 233 223 223 247 273 287 283 276 291 314 327 326 324 329 327 321 321 327 326 315 308 313 323 328 327 328 332 335 339 342 346 354 1 2 2 6 10 11 10 11 13 14 13 13 16 17 19 21 24 23 20 18 21 27 27 24 26 30 32 32 30 30 32 35
181 190 180 169 172 181 183 189 196 193 188 186 186 189 197 200 202 208 211 215 226 237 236 227 232 249 260 261 263 271 289 307 307 298 286 289 295 301 305 302 299 301 308 315 318 317 317 321 328 335 340 345 352 357 357 356 359 3 6 7 8 11 14 12 12 16 17 17 19 23 24 22 19 20 27 31 28 25 28 32 35 36 34 32 33
181 190 181 169 169 178 184 189 195 195 195 195 192 193 204 213 212 211 215 219 222 228 235 234 237 245 248 247 253 262 276 294 300 295 278 263 271 285 292 289 290 297 300 300 303 305 306 311 321 331 338 342 348 351 352 351 351 352 356 0 3 8 11 11 12 15 16 14 17 22 23 22 19 18 23 30 32 29 26 28 32 37 39 38 36
183 188 182 173 169 174 183 189 190 192 196 197 196 197 205 215 219 217 218 221 222 227 233 235 239 248 253 253 259 267 276 288 296 295 282 263 262 273 280 281 287 296 295 290 293 299 302 305 313 324 333 336 340 344 346 348 346 344 346 349 354 1 6 7 9 13 14 13 16 20 21 20 20 19 19 27 35 35 31 28 30 34 37 40 39
186 188 183 180 176 174 180 190 191 192 197 199 201 203 206 209 217 223 225 227 227 227 231 234 237 248 256 261 266 271 279 290 296 291 283 282 282 274 272 277 285 287 281 280 287 293 294 296 305 317 326 329 333 337 340 343 345 341 337 338 341 350 358 1 3 8 11 11 13 18 19 19 19 19 19 25 35 39 37 35 32 29 28 32 38
192 194 188 188 186 179 177 188 194 194 197 201 203 207 211 212 217 223 227 233 236 235 234 235 235 243 255 262 266 271 280 291 298 291 281 284 282 274 275 282 287 284 278 278 283 288 289 292 300 311 317 321 326 330 332 336 340 340 335 330 329 336 348 355 356 0 5 6 8 13 17 17 16 17 18 23 30 36 38 38 36 29 22 23 28
189 195 191 192 193 188 183 189 195 197 202 207 208 211 215 217 221 225 229 234 239 241 242 241 237 239 250 260 267 276 285 292 297 294 283 276 275 275 278 282 284 284 283 281 281 285 289 293 300 307 311 312 316 320 324 329 332 334 336 327 319 323 336 346 348 351 356 360 2 6 11 14 14 13 15 19 25 32 36 36 34 33 28 22 21
184 190 189 192 196 194 192 194 195 196 203 211 213 216 221 223 224 228 229 231 235 239 243 244 243 243 248 254 261 270 276 278 278 275 271 270 274 277 277 277 278 279 278 277 278 283 288 293 298 303 307 309 310 313 318 323 323 326 333 326 311 315 328 338 340 341 346 351 354 358 3 8 10 11 12 13 17 25 35 38 34 32 30 28 24
186 189 192 192 194 195 197 201 202 201 206 213 216 219 223 226 229 233 234 233 234 235 237 240 245 248 251 254 258 262 266 268 267 266 266 270 276 278 277 278 280 279 276 276 279 283 289 296 301 304 306 308 309 310 313 315 315 320 327 321 306 310 322 330 332 334 338 342 345 349 354 359 3 6 7 9 11 14 22 31 37 37 32 27 21
190 191 194 196 195 196 198 203 207 208 211 216 219 222 224 226 229 235 239 241 241 239 237 239 243 245 248 253 255 257 261 263 264 267 269 272 274 276 277 278 281 283 282 282 285 288 293 298 303 305 306 306 305 305 306 307 309 315 319 315 309 312 318 323 324 327 331 333 336 341 345 349 353 357 360 3 6 9 10 12 24 40 39 28 14
193 193 195 197 199 200 201 204 209 211 214 218 221 223 226 228 229 231 236 241 243 244 244 245 247 247 250 253 255 257 261 262 263 266 268 268 271 277 280 279 278 279 281 283 287 291 295 299 301 304 307 307 306 305 304 303 305 308 309 309 311 315 318 319 320 322 325 327 329 332 336 340 343 348 351 353 358 4 5 3 6 28 40 31 14
193 196 198 200 202 204 205 207 210 214 217 221 224 225 228 231 233 234 235 236 239 242 245 249 251 253 255 257 259 261 262 262 264 267 269 268 272 279 282 279 277 280 285 289 291 294 300 304 303 303 305 307 308 307 305 304 303 303 303 303 307 312 315 317 318 319 320 322 323 324 328 331 334 338 340 342 346 353 359 0 0 11 30 26 10
187 194 200 204 206 208 209 210 213 216 219 222 226 228 231 234 235 237 238 239 240 242 244 247 250 253 255 258 261 262 263 264 267 269 268 267 271 278 282 283 282 282 284 288 290 291 295 300 302 301 303 305 306 305 305 304 303 303 303 304 306 309 311 313 315 315 315 316 317 318 319 322 326 330 330 330 331 335 344 355 356 353 6 12 359